Regional Weather Roundup
Issued by NWS Wakefield, VA

Home | Current Version | Previous Version | Graphics & Text | Print | Product List | Glossary On
Versions: 1 2 3 4 5 6 7 8 9 10 11 12 13 14 15 16 17 18 19 20 21 22 23 24 25 26 27 28 29 30 31 32 33 34 35 36 37 38 39 40 41 42 43 44 45 46 47 48 49 50
000
ASUS41 KAKQ 290210
RWRAKQ

REGIONAL WEATHER ROUNDUP
NATIONAL WEATHER SERVICE WAKEFIELD VA
1000 PM EDT THU AUG 28 2014

Note: "fair" indicates few or no clouds below 12,000 feet with no
significant weather and/or obstructions to visibility. * = Denotes
station may not report precipitation (e.g., rain,snow,etc.),
thunder or fog.

VAZ042-051-052>054-056-290300-
NORTHERN VIRGINIA

CITY           SKY/WX    TMP DP  RH WIND       PRES   REMARKS
WASH NATIONAL  CLEAR     77  52  41 N10       30.07R
DULLES         CLEAR     70  53  54 N6        30.08R
FORT BELVOIR   CLEAR     68  58  70 N2        30.07R
QUANTICO       CLEAR     74  56  53 N8        30.06R
FREDERICKSBRG* CLEAR     74  64  69 N3        30.05R
STAFFORD*      CLEAR     70  60  70 N6        30.10R
WARRENTON      CLEAR     61  61 100 CALM      30.07R
CULPEPER*      CLEAR    N/A N/A N/A CALM      30.08R
MANASSAS*      CLEAR     66  61  82 CALM      30.07R
LEESBURG*      CLEAR     68  59  73 N5        30.09R
WINCHESTER     CLEAR     66  52  59 N3        30.10R
$$

VAZ048-049-060>072-079>083-290300-
CENTRAL AND SOUTH CENTRAL VIRGINIA...AND NORTH CENTRAL NORTH CAROLINA

CITY           SKY/WX    TMP DP  RH WIND       PRES   REMARKS
RICHMOND       CLOUDY    78  60  53 NE7       30.03R
CHESTERFIELD*  CLOUDY    79  55  44 E3        30.04R
PETERSBURG*    CLOUDY    79  58  48 E6        30.02R
HANOVER        PTCLDY    73  65  75 CALM      30.05R
TAPPAHANNOCK*  CLEAR     69  61  75 CALM      30.05R
CHARLOTTSVILLE CLEAR     74  59  59 NE8       30.07R
ORANGE*        CLEAR     70  59  68 NE3       30.09R
LOUISA*        MOCLDY    73  63  68 NE6       30.05R
FARMVILLE*     RAIN      73  72  94 N5        30.03R
SOUTH HILL*    CLEAR     75  75 100 CALM      30.06R
ROANOKE RAPIDS CLEAR     72  72 100 CALM      30.00R FOG
RALEIGH        PTCLDY    78  72  81 CALM      30.01R
$$

VAZ088>098-290300-
SOUTHEAST VIRGINIA

CITY           SKY/WX    TMP DP  RH WIND       PRES   REMARKS
NORFOLK        CLEAR     77  69  76 NE3       30.02R
VIRGINIA BEACH PTCLDY    74  71  91 CALM      30.01R
NORFOLK NAVAL  PTCLDY    79  68  69 E3        30.03R
WEST POINT*    PTCLDY    76  64  66 NE3       30.04R
NEWPORT NEWS   CLEAR     75  71  87 CALM      30.02R
LANGLEY AFB    CLEAR     76  72  89 E5        30.02R
FORT EUSTIS    CLEAR     77  73  88 E3        30.01R
WILLIAMSBURG*  MOCLDY    77  72  83 CALM      30.03R
FRANKLIN*      CLEAR     75  70  83 SE3       30.01R
WAKEFIELD      CLEAR     74  70  87 CALM      30.02R
$$

VAZ020-022-025-037-045-290300-
WESTERN AND SOUTHWEST VIRGINIA

CITY           SKY/WX    TMP DP  RH WIND       PRES   REMARKS
STAUNTON*      CLEAR     69  54  58 NE5       30.12R
HOT SPRINGS VA CLEAR     64  51  63 NW8       30.24R
LYNCHBURG      CLEAR     74  70  87 N6        30.06R
DANVILLE       CLEAR     74  69  85 CALM      30.02R
MARTINSVILLE   CLEAR     73  73  99 CALM      30.07R FOG
ROANOKE        CLEAR     78  62  57 N3        30.09R
BLACKSBURG     CLEAR     72  66  83 N6        30.15R
DUBLIN*        CLEAR     75  65  72 CALM      30.15R
MARION*        CLEAR    N/A N/A N/A CALM      30.19R
HILLSVILLE*    CLEAR     73  64  74 CALM      30.16R
RICHLANDS*     CLEAR     74  66  76 NE3       30.17R
WISE*          CLEAR     70  64  83 CALM      30.19R
ABINGDON*      CLEAR     73  68  85 CALM      30.13R
$$

MDZ021>025-VAZ099-100-290300-
SOUTHERN MARYLAND AND THE DELMARVA PENINSULA

CITY           SKY/WX    TMP DP  RH WIND       PRES   REMARKS
PATUXENT RIVER CLEAR     74  55  51 N8        30.04R
BAY BRIDGE APT   N/A     73  52  46 N9G17     30.06R
LEONARDTOWN    CLEAR     70  55  60 CALM      30.06R
DOVER          CLEAR     65  54  67 N8        30.03R
GEORGETOWN     CLEAR     71  54  54 VRB6      30.05R
EASTON         NOT AVBL
CAMBRIDGE      CLEAR     72  61  68 NE5       30.04R
SALISBURY      CLEAR     70  60  70 N5        30.04R
OCEAN CITY     MOCLDY    67  61  81 N5        30.03R
WALLOPS ISLAND CLEAR     72  67  84 CALM      30.03R
ACCOMACK*      NOT AVBL
$$

NCZ012>017-030>032-290300-
EASTERN NORTH CAROLINA

CITY           SKY/WX    TMP DP  RH WIND       PRES   REMARKS
ELIZABETH CITY CLEAR     76  70  82 SE6       30.01S
AHOSKIE*       CLEAR     74  73  95 CALM      30.01R
EDENTON*       CLEAR     76  73  88 SE7       30.02R
CURRITUCK*     CLEAR     75  69  81 CALM      30.02S
KILL DEVIL HLS PTCLDY    76  69  78 CALM      30.01R
MANTEO         MOCLDY    76  70  81 E5        30.02R
CAPE HATTERAS  CLEAR     75  74  96 E5        30.02R
GOLDSBORO      CLEAR     79  79  98 S5        29.98R
WASHINGTON     CLEAR     77  74  90 CALM      30.00S
GREENVILLE     CLEAR     77  75  94 CALM      30.02R FOG
NEW BERN       MOCLDY    79  69  71 CALM      30.01R
WILMINGTON     CLEAR     78  70  76 SW6       30.01R
$$

VAZ048-290300-
ELSEWHERE

CITY           SKY/WX    TMP DP  RH WIND       PRES   REMARKS
HARRISBURG PA  PTCLDY    67  52  58 NW3       30.07R
BALTIMORE      CLEAR     70  53  54 CALM      30.06R
ANNAPOLIS      CLEAR     75  58  55 N12       30.06R
ANDREWS AFB    CLEAR     65  54  68 N6        30.06R
WILMINGTON DE  CLEAR     67  53  61 NW6       30.06R
PHILADELPHIA   PTCLDY    72  52  49 N9        30.05R
WILDWOOD NJ*   CLEAR     72  52  49 N8        30.04R
ATLANTIC CITY  CLEAR     63  55  75 NW5       30.03R
HENDERSON NC   CLEAR     75  73  91 CALM      30.02R
GREENSBORO     MOCLDY    79  71  76 NW3       30.03R
ROCKY MOUNT    CLEAR     75  74  96 CALM      30.00R FOG
FAYETTEVILLE   CLEAR     82  67  60 S3        29.99R
CHARLOTTE      PTCLDY    79  68  69 NW3       30.03R
$$

VAZ100-290300-
MARINE

STATION/POSITION TIME  TEMP    WIND        PRES    WAVE   SWELL
                       AIR SEA DIR/SP/G            HT/PER HT/PER
                 (UTC) (F)     (DEG/KT/KT) (MB)    (FT/S) (FT/S)
44066 TX TWR #4  0200   73 73  310/ 12/ 14 1014.8R   5/13   5/13
CAPE MAY NJ      0200   75 80  350/  7/ 16 1016.5R
LEWES DE         0200   76 77   10/ 14/ 16 1016.9R
15NM E FENWICK I 0200   76 74              1016.4R   4/13
OCEAN-CITY-INLET 0200   75 76  360/  6/  9 1016.5R
WACHAPREAGUE VA  0200   75 82  100/  4/  6 1016.7R
THOMAS POINT MD  0200   76 78   10/ 16/ 18 1018.3R
GOOSES REEF MD   0200   78      40/ 14/ 17 1017.5R
COVE POINT MD    0200   77      50/  8/ 10 1017.0R
SOLOMONS ISLAND  0200      81                N/A
BISHOPS HEAD MD  0200   77 81   20/  6/ 12 1016.4R
PINEY POINT MD   0200           30/  7/  8   N/A
POTOMAC MD       0200   79      20/ 10/ 14 1016.3R
CAMBRIDGE MD     0200   75 80   30/  7/  8 1016.9R
LEWISETTA VA     0200   78 81   30/  7/ 11 1016.7R
RAPPAHANNOCK LGT 0200           20/ 15/ 16 1017.1R
STINGRAY PT      0200   80      30/ 12/ 14   N/A
YORK RVR RNG VA  0200   80      70/  9/ 10 1016.0R
YORKTOWN VA      0200   79 80   60/  9/ 10 1016.2R
JAMESTOWN VA     0200   76     100/  4/  6   N/A
DOMINION TERM VA 0200   79      30/  2/  5 1016.5R
KIPTOPEKE VA     0200      82   40/  2/  3   N/A
CHES BAY BRIDGE  0200   79 78   60/  2/  3 1016.0R
CAPE HENRY VA    0200   77     110/  3/  4 1015.2R
CHESAPEAKE LGHT  0100   78      90/  2/  3 1016.8R
WILLOUBY STN VA  0200   78      40/  2/  2 1015.3S
S CRANEY ISL VA  0200           20/  7/  8 1016.1R
CAPE HENRY BUOY  0200      78                N/A     3/10   2/11
1ST LANDING BUOY 0200   79      90/  4/  4 1016.0R
CAPE CHARLES BUO 0200      78                N/A     3/10   3/10
OFFSHORE WE BUOY 0200      77                N/A     3/11   3/11
64NM E OF VA BCH 0200   76 76  190/  4/  4 1015.9R   4/10   5/10
DUCK PIER NC     0200   76 78  140/ 11/ 11 1015.6S
44056 DUCK FRF   0200                        N/A     3/11   2/11
OREGON INLET NC  0200   77 79   90/  5/  7 1016.5R
HATTERAS NC      0200   79 80   70/  4/  6 1016.8R
DIAMOND SHLS NC  0200   81     230/  8/  8 1016.2R   5/ 9   5/ 9
CAPE LOOKOUT NC  0100   80     220/  7/  9 1015.8R
$$



USA.gov is the U.S. government's official web portal to all federal, state and local government web resources and services.